Regional Weather Roundup
Issued by NWS

Home | Current Version | Previous Version | Graphics & Text | Print | Product List | Glossary On
Versions: 1 2 3 4 5 6 7 8 9 10 11 12 13 14 15 16 17 18 19 20 21 22 23 24 25 26 27 28 29 30 31 32 33 34 35 36 37 38 39 40 41 42 43 44 45 46 47 48 49 50
000
ASUS43 KMPX 240001
RWRMN
WEATHER ROUNDUP FOR MINNESOTA
NATIONAL WEATHER SERVICE TWIN CITIES/CHANHASSEN MN
700 PM CDT THU OCT 23 2014


NOTE: "FAIR" INDICATES FEW OR NO CLOUDS BELOW 12,000 FEET WITH NO
SIGNIFICANT WEATHER AND/OR OBSTRUCTIONS TO VISIBILITY. N/A MEANS
CURRENT SKY AND/OR WEATHER CONDITIONS ARE NOT AVAILABLE.

MNZ060>063-068>070-240100-
   Twin Cities Metro

CITY           SKY/WX    TMP DP  RH WIND       PRES   REMARKS
TWIN CITIES    CLEAR     59  46  62 SE9       29.97R
6HR MIN TEMP:  59; 6HR MAX TEMP:  68;

ST PAUL        CLEAR     57  51  80 SE8       29.98R
CRYSTAL        CLEAR     55  47  74 CALM      29.95S
BLAINE         CLEAR     54  46  76 CALM      29.96S
LAKEVILLE      CLEAR     52  43  71 CALM      29.98R
EDEN PRAIRIE   CLEAR     63  42  46 S3        29.96R
6HR MIN TEMP:  61; 6HR MAX TEMP:  69;

SOUTH ST PAUL  CLEAR     57  51  79 SE5       29.98R
LAKE ELMO      FAIR      54  50  87 SE5       29.99R
$$
MNZ001>005-007-008-013>017-022>024-027-028-240100-
   Northwest Minnesota

CITY           SKY/WX    TMP DP  RH WIND       PRES   REMARKS
BEMIDJI        PTCLDY    56  35  44 S3        29.86S
HALLOCK        CLEAR     52  37  58 S7        29.77S
ROSEAU         CLEAR     52  43  71 S6        29.80S HAZE
WARROAD        PTCLDY    54  43  66 S5        29.81S
THIEF RVR FALL CLEAR     57  39  51 SE7       29.81F
CROOKSTON      CLEAR     54  41  62 S8        29.81S
FOSSTON        CLEAR     52  37  58 SE3       29.84F
DETROIT LAKES  CLEAR     55  41  58 S6        29.88S
MOORHEAD       CLEAR     63  30  29 S8        29.84S
PARK RAPIDS    CLEAR     56  36  47 S6        29.88S
MAHNOMEN       FAIR      52  38  58 S8        29.84F
$$
MNZ006-009>011-018-025>026-240100-
   North Central Minnesota

CITY           SKY/WX    TMP DP  RH WIND       PRES   REMARKS
BAUDETTE       PTCLDY    54  37  52 S6        29.82R
FLAG ISLAND    PTCLDY    57  41  54 SW7       29.79R
INTL FALLS     PTCLDY    52  36  54 SW5       29.84S
6HR MIN TEMP:  51; 6HR MAX TEMP:  68;

WASKISH        MOCLDY    46  41  81 CALM        N/A
BIG FORK       CLEAR     52  43  71 S3        29.88S
LONGVILLE      PTCLDY    48  43  81 CALM      29.89S
GRAND RAPIDS   PTCLDY    54  43  66 S6        29.90S
CRANE LAKE     CLEAR     54  46  76 S5        29.88S
ORR            CLEAR     54  45  71 S5        29.86R
COOK           CLEAR     54  48  82 SE5       29.89F
WALKER         FAIR      60  37  42 S5        29.87F
$$
MNZ012-019>021-037-240100-
   Northeast Minnesota

CITY           SKY/WX    TMP DP  RH WIND       PRES   REMARKS
DULUTH         PTCLDY    51  46  83 S6        29.94R
6HR MIN TEMP:  51; 6HR MAX TEMP:  57;

ELY            CLEAR     48  46  93 S3        29.91S
HIBBING        CLEAR     49  46  90 SE5       29.90S
EVELETH        CLEAR     45  45 100 CALM      29.93R
DULUTH HARBOR  CLEAR     52  48  87 S6        29.94S
TWO HARBORS    CLEAR     48  37  66 CALM      29.93R HAZE
SILVER BAY     CLEAR     46  45  93 CALM      29.93R FOG
GRAND MARAIS     N/A     47  46  97 S3        29.95S
G MARAIS ARPRT FOG       43  39  87 S3        29.94S VSB 1/4
$$
MNZ029>031-032-039>041-046>048-054>057-064-240100-
   West Central Minnesota

CITY           SKY/WX    TMP DP  RH WIND       PRES   REMARKS
FERGUS FALLS   CLEAR     57  36  44 S5        29.88R
WHEATON        CLEAR     57  41  54 S9        29.90S
MORRIS         CLEAR     55  43  62 SW9       29.90R
ALEXANDRIA     CLEAR     55  42  61 S7        29.92S
ELBOW LAKE     FAIR      55  41  59 S7        29.89R
WADENA         CLEAR     54  41  62 S5        29.89F
GLENWOOD       CLEAR     55  43  62 SE7       29.92F
APPLETON       CLEAR     61  39  44 S3        29.91R
BENSON         CLEAR     57  41  54 SW6       29.92R
ORTONVILLE     CLEAR     57  39  51 CALM      29.91R
MADISON        CLEAR     61  39  44 S6        29.92R
WILLMAR        FAIR      55  41  58 SE5       29.95S
$$
MNZ033>034-036-042>043-049>051-058-059-240100-
   Central Minnesota

CITY           SKY/WX    TMP DP  RH WIND       PRES   REMARKS
ST CLOUD       CLEAR     57  41  55 S5        29.94R
6HR MIN TEMP:  57; 6HR MAX TEMP:  71;

SAUK CENTRE    FAIR      54  42  63 SE6       29.92F
PAYNESVILLE    CLEAR     52  37  56 SE5       29.94S
AITKIN         MOCLDY    54  46  76 SE5       29.91S
PINE RIVER     PTCLDY    52  43  71 CALM      29.94S
BRAINERD       PTCLDY    52  38  58 CALM      29.92S
STAPLES        CLEAR     57  37  47 S5        29.90F
LONG PRAIRIE   FAIR      52  39  62 SE5       29.92F
LITTLE FALLS   CLEAR     54  37  54 CALM      29.94R
LITCHFIELD     CLEAR     59  39  47 CALM      29.96R
BUFFALO        CLEAR     55  45  68 CALM      29.96S
MAPLE LAKE     CLEAR     51  46  80 CALM      29.96R
$$
MNZ037-044-045-052-053-240100-
   East Central Minnesota

CITY           SKY/WX    TMP DP  RH WIND       PRES   REMARKS
PRINCETON      CLEAR     54  48  82 SE3       29.95S
MORA           CLEAR     50  45  81 CALM      29.96S
CAMBRIDGE      CLEAR     55  45  67 CALM      29.94R
RUSH CITY      MOCLDY    55  50  83 SE3       29.96S
MOOSE LAKE     CLEAR     52  48  87 CALM      29.92S
HINCKLEY       FAIR      55  52  88 CALM      29.95S
CLOQUET        CLEAR     54  48  82 CALM      29.94R
$$
MNZ071>073-080-081-089-090-097-098-240100-
   Southwest Minnesota

CITY           SKY/WX    TMP DP  RH WIND       PRES   REMARKS
MONTEVIDEO     CLEAR     61  41  48 SW5       29.93S
GRANITE FALLS  CLEAR     56  43  61 S8        29.94F
CANBY          CLEAR     60  42  51 S6        29.93R
MARSHALL       CLEAR     59  45  58 S8        29.93F
REDWOOD FALLS  CLEAR     61  39  44 SW7       29.95R
OLIVIA         CLEAR     59  41  51 S3        29.94S
PIPESTONE      CLEAR     57  45  62 S8        29.95F
WINDOM         CLEAR     59  41  51 CALM      29.98R
WORTHINGTON    CLEAR     57  45  62 SW6       29.99R
JACKSON        CLEAR     54  39  58 S3        29.99R
TRACY          CLEAR     59  44  57 S6        29.96S
SLAYTON        CLEAR     56  42  61 CALM      29.98S
$$
MNZ065>067-074>077-082>085-091>093-240100-
   South Central Minnesota

CITY           SKY/WX    TMP DP  RH WIND       PRES   REMARKS
MANKATO        CLEAR     61  36  39 CALM      29.97S
NEW ULM        CLEAR     57  43  58 CALM      29.96R
ST JAMES       CLEAR     55  36  47 CALM      29.99R
FAIRMONT       CLEAR     57  27  30 SW5       29.98R
GLENCOE        CLEAR     56  45  66 CALM      29.96R
FARIBAULT      CLEAR     46  43  87 CALM      29.99R
OWATONNA       CLEAR     48  41  76 CALM      29.99R
WASECA         CLEAR     50  41  71 E3        29.99S
ALBERT LEA     CLEAR     57  50  77 CALM      29.99R
$$
MNZ078>079-086>088-094>096-240100-
   Southeast Minnesota

CITY           SKY/WX    TMP DP  RH WIND       PRES   REMARKS
ROCHESTER      CLEAR     50  48  93 SE7       30.02R
6HR MIN TEMP:  50; 6HR MAX TEMP:  59;

RED WING         N/A     52  48  87 SE5       30.00R
STANTON        CLEAR     57  51  81 S3        29.97R
DODGE CENTER   PTCLDY    52  48  87 SE6       30.00R
WINONA         CLOUDY    54  52  94 CALM      30.02R
AUSTIN         CLEAR     54  50  87 CALM      30.01R
PRESTON        CLEAR     47  46  96 S6        30.02S FOG
$$
ABBREVIATIONS USED IN REMARKS
   TC - TEMPERATURES IN CELSIUS
  WCI - WIND CHILL INDEX
   HX - HEAT INDEX
  VSB - VISIBILITY
$$



USA.gov is the U.S. government's official web portal to all federal, state and local government web resources and services.